EHI
0 0 0 0 0 0 0 0 0 0 0 0 0 0 0 0 0 0 0 0 0 0 0 0 0 0 0 0 0 0 0 0 0 0 0 0 0 0 0 0 0 0 0
0 0 0 0 0 0 0 0 0 0 0 0 0 0 0 0 0 0 0 0 0 0 0 0 0 0 0 0 0 0 0 0 0 0 0 0 0 0 0 0 0 0 0
0 0 0 0 0 0 0 0 0 0 0 0 0 0 0 0 0 0 0 0 0 0 0 0 0 0 0 0 0 0 0 0 0 0 0 0 0 0 0 0 0 0 0
0 0 0 0 0 0 0 0 0 0 0 0 0 0 0 0 0 0 0 0 0 0 0 0 0 0 0 0 0 0 0 0 0 0 0 0 0 0 0 0 0 0 0
0 0 0 0 0 0 0 0 0 0 0 0 0 0 0 0 0 0 0 0 0 0 0 0 0 0 0 0 0 0 0 0 0 0 0 0 0 0 0 0 0 0 0
0 0 0 0 0 0 0 0 0 0 0 0 0 0 0 0 0 0 0 0 0 0 0 0 0 0 0 0 0 0 0 0 0 0 0 0 0 0 0 0 0 0 0
0 0 0 0 0 0 0 0 0 0 0 0 0 0 0 0 0 0 0 0 0 0 0 0 0 0 0 0 0 0 0 0 0 0 0 0 0 0 0 0 0 0 0
0 0 0 0 0 0 0 0 0 0 0 0 0 0 0 0 0 0 0 0 0 0 0 0 0 0 0 0 0 0 0 0 0 0 0 0 0 0 0 0 0 0 0
0 0 0 0 0 0 0 0 0 0 0 0 0 0 0 0 0 0 0 0 0 0 0 0 0 0 0 0 0 0 0 0 0 0 0 0 0 0 0 0 0 0 0
0 0 0 0 0 0 0 0 0 0 0 0 0 0 0 0 0 0 0 0 0 0 0 0 0 0 0 0 0 0 0 0 0 0 0 0 0 0 0 0 0 0 0
0 0 0 0 0 0 0 0 0 0 0 0 0 0 0 0 0 0 0 0 0 0 0 0 0 0 0 0 0 0 0 0 0 0 0 0 0 0 0 0 0 0 0
0 0 0 0 0 0 0 0 0 0 0 0 0 0 0 0 0 0 0 0 0 0 0 0 0 0 0 0 0 0 0 0 0 0 0 0 0 0 0 0 0 0 0
0 0 0 0 0 0 0 0 0 0 0 0 0 0 0 0 0 0 0 0 0 0 0 0 0 0 0 0 0 0 0 0 0 0 0 0 0 0 0 0 0 0 0
0 0 0 0 0 0 0 0 0 0 0 0 0 0 0 0 0 0 0 0 0 0 0 0 0 0 0 0 0 0 0 0 0 0 0 0 0 0 0 0 0 0 0
0 0 0 0 0 0 0 0 0 0 0 0 0 0 0 0 0 0 0 0 0 0 0 0 0 0 0 0 0 0 0 0 0 0 0 0 0 0 0 0 0 0 0
0 0 0 0 0 0 0 0 0 0 0 0 0 0 0 0 0 0 0 0 0 0 0 0 0 0 0 0 0 0 0 0 0 0 0 0 0 0 0 0 0 0 0
0 0 0 0 0 0 0 0 0 0 0 0 0 0 0 0 0 0 0 0 0 0 0 0 0 0 0 0 0 0 0 0 0 0 0 0 0 0 0 0 0 0 0
0 0 0 0 0 0 0 0 0 0 0 0 0 0 0 0 0 0 0 0 0 0 0 0 0 0 0 0 0 0 0 0 0 0 0 0 0 0 0 0 0 0 0
0 0 0 0 0 0 0 0 0 0 0 0 0 0 0 0 0 0 0 0 0 0 0 0 0 0 0 0 0 0 0 0 0 0 0 0 0 0 0 0 0 0 0
0 0 0 0 0 0 0 0 0 0 0 0 0 0 0 0 0 0 0 0 0 0 0 0 0 0 0 0 0 0 0 0 0 0 0 0 0 0 0 0 0 0 0
0 0 0 0 0 0 0 0 0 0 0 0 0 0 0 0 0 0 0 0 0 0 0 0 0 0 0 0 0 0 0 0 0 0 0 0 0 0 0 0 0 0 0
0 0 0 0 0 0 0 0 0 0 0 0 0 0 0 0 0 0 0 0 0 0 0 0 0 0 0 0 0 0 0 0 0 0 0 0 0 0 0 0 0 0 0
0 0 0 0 0 0 0 0 0 0 0 0 0 0 0 0 0 0 0 0 0 0 0 0 0 0 0 0 0 0 0 0 0 0 0 0 0 0 0 0 0 0 0
0 0 0 0 0 0 0 0 0 0 0 0 0 0 0 0 0 0 0 0 0 0 0 0 0 0 0 0 0 0 0 0 0 0 0 0 0 0 0 0 0 0 0
0 0 0 0 0 0 0 0 0 0 0 0 0 0 0 0 0 0 0 0 0 0 0 0 0 0 0 0 0 0 0 0 0 0 0 0 0 0 0 0 0 0 0
0 0 0 0 0 0 0 0 0 0 0 0 0 0 0 0 0 0 0 0 0 0 0 0 0 0 0 0 0 0 0 0 0 0 0 0 0 0 0 0 0 0 0
Wind_Speed
8 8 7 7 7 7 7 6 5 4 4 2 2 2 1 1 0 1 1 1 1 0 0 1 1 1 1 2 2 2 3 3 3 3 4 4 4 4 2 3 3 4 4
8 8 8 7 7 7 7 7 6 5 4 3 2 2 2 1 1 1 1 1 1 1 1 1 1 1 1 2 2 2 2 2 2 2 3 4 4 2 3 3 4 4 3
9 9 9 8 7 7 7 7 6 5 4 4 2 1 1 0 1 1 1 2 2 2 1 2 1 2 1 2 2 2 2 3 3 1 1 2 4 4 3 3 4 3 3
7 9 9 9 8 7 7 7 7 6 4 4 3 3 2 2 2 2 2 2 2 2 2 2 2 2 2 2 3 2 2 2 3 3 2 3 3 3 5 3 3 4 5
7 8 9 9 8 7 6 6 6 6 5 4 4 3 2 2 1 1 2 2 2 3 3 2 2 2 2 3 3 3 3 2 3 3 3 4 3 4 5 7 5 4 4
5 6 7 8 7 7 6 6 6 5 5 5 4 4 3 3 2 2 2 2 2 2 3 3 2 2 2 3 3 3 4 3 4 4 3 3 3 3 4 6 8 7 5
5 6 7 8 8 8 7 6 6 5 5 5 4 4 4 4 3 3 2 2 2 2 3 3 2 3 3 3 3 4 4 4 5 4 4 4 4 4 4 6 7 9 7
4 5 6 7 8 8 7 6 6 5 5 5 4 4 3 3 3 3 3 3 3 3 3 3 3 4 4 4 4 4 4 4 4 6 5 4 4 4 4 5 6 9 8
4 4 5 6 7 7 7 7 6 5 5 5 4 4 4 3 3 3 3 3 2 2 2 3 3 4 4 4 4 4 5 4 4 5 5 5 4 4 4 4 4 6 9
3 4 4 4 5 6 5 5 4 4 4 4 4 3 3 3 3 2 3 2 2 2 2 3 3 4 4 4 4 4 4 5 5 4 5 5 4 4 4 4 5 5 7
3 3 3 4 4 4 4 4 4 3 3 3 3 3 2 2 2 2 3 2 2 2 3 3 3 4 4 4 4 5 5 5 6 5 6 6 5 4 4 4 4 5 5
3 3 3 3 3 4 4 4 3 3 3 2 2 2 2 2 2 2 2 2 2 2 3 3 4 4 4 4 5 6 5 6 6 6 6 7 6 6 5 4 5 5 5
4 3 2 2 2 3 3 3 3 2 2 2 2 2 1 2 2 2 2 2 2 3 3 3 4 4 4 4 5 5 5 6 6 6 7 7 6 7 6 5 6 5 6
3 3 2 1 1 2 2 2 1 1 1 1 2 1 2 2 2 2 2 2 3 3 3 3 4 4 5 5 5 5 5 6 6 6 7 7 7 8 7 6 7 6 7
3 2 2 1 1 1 1 1 1 1 1 1 1 1 1 1 1 2 2 2 3 3 3 3 4 4 4 4 4 4 5 6 6 7 7 7 9 10 9 7 6 6 6
2 2 1 1 1 1 1 1 0 0 1 1 1 0 0 1 1 2 2 2 3 3 2 3 4 4 5 7 8 7 5 6 6 7 7 7 7 9 12 14 13 11 9
1 1 1 1 1 1 1 1 1 1 1 1 1 1 0 1 1 2 2 2 3 2 3 3 4 5 6 8 9 10 6 6 6 6 6 6 6 9 6 9 12 11 14
1 1 1 1 2 1 1 1 2 2 1 1 1 1 1 1 2 2 2 3 2 2 3 4 4 4 6 9 10 10 6 5 6 6 6 6 6 7 8 7 7 7 8
2 1 1 1 1 1 1 2 2 1 1 1 1 1 1 1 2 2 3 3 2 3 3 3 4 4 5 8 10 10 5 5 6 7 6 6 6 10 12 8 7 8 7
3 3 2 2 2 2 2 2 1 1 2 1 1 1 1 1 2 2 3 3 2 3 3 4 4 4 4 7 10 10 4 5 6 6 6 8 9 11 12 7 6 7 7
3 3 3 2 2 2 2 2 2 2 2 2 2 2 2 2 2 2 2 2 3 3 3 4 4 3 4 7 9 9 4 5 6 5 5 5 11 12 12 10 6 7 7
3 3 3 3 3 3 3 2 2 2 2 2 2 2 2 2 2 2 3 3 2 3 3 4 4 3 4 6 8 10 9 9 6 5 5 6 11 12 12 8 7 8 7
3 3 3 3 3 3 3 2 2 2 2 2 2 2 2 2 2 2 2 3 2 2 3 3 4 4 4 5 9 10 11 11 7 5 9 11 12 11 7 7 9 7 3
3 3 3 3 3 4 4 3 2 2 2 2 2 2 2 2 3 2 2 2 2 2 3 3 4 4 5 4 4 4 5 8 7 6 8 10 10 7 6 7 6 4 3
3 3 3 3 3 3 4 3 3 3 3 2 2 2 2 2 2 3 2 2 2 2 3 3 3 4 5 6 10 8 6 5 5 6 5 4 4 4 4 4 4 3 3
3 3 3 3 3 4 4 4 4 3 3 2 3 2 2 2 2 2 3 4 4 5 6 6 5 5 6 10 10 11 11 10 9 6 4 4 4 4 4 4 4 3 3
Wind_Direction
177 167 160 153 149 146 147 150 150 153 145 145 151 150 164 174 157 187 189 209 225 234 283 305 308 309 297 294 303 308 310 310 316 313 306 288 268 261 259 271 271 263 261
173 164 157 153 155 154 153 155 159 159 154 160 164 165 169 185 187 207 219 226 232 241 256 259 272 282 287 300 302 302 303 308 331 314 313 313 310 300 292 274 259 258 266
176 166 162 161 159 159 160 163 161 159 158 159 148 145 129 170 241 227 218 225 225 229 245 258 267 282 279 277 285 289 295 297 303 300 282 294 291 306 273 262 267 264 266
174 168 167 166 165 164 160 160 160 159 161 155 156 167 184 206 223 219 226 236 230 235 237 246 253 265 271 275 277 285 276 272 283 288 261 253 270 291 301 291 275 281 278
175 172 170 166 162 156 157 160 158 160 161 162 169 179 195 216 221 221 234 242 237 231 236 241 246 260 265 269 275 278 274 262 261 266 273 275 275 263 274 290 291 283 269
171 169 163 156 155 152 155 161 161 165 167 170 178 183 193 207 216 231 234 244 246 238 237 240 239 254 262 264 265 264 265 264 264 263 260 261 260 263 267 280 291 293 286
167 167 164 162 159 159 162 167 165 171 174 177 186 191 197 200 208 220 227 242 254 254 242 247 248 257 263 263 262 262 261 260 261 260 260 261 261 263 266 275 286 289 288
155 164 164 161 160 162 166 172 174 177 178 182 193 197 199 201 207 215 225 237 241 246 246 248 251 254 260 268 264 264 259 262 260 265 263 266 264 261 259 265 280 290 291
139 151 154 157 158 164 173 177 178 179 181 186 191 198 202 207 213 217 224 238 246 255 253 251 254 259 260 261 262 260 264 266 263 261 260 263 264 259 258 259 257 270 289
128 137 147 153 157 163 166 168 178 182 184 187 194 206 209 209 211 213 225 240 247 252 256 266 260 264 267 265 264 267 268 266 263 260 263 265 268 264 260 259 256 252 264
123 132 135 138 141 144 155 169 179 180 184 188 194 202 202 193 190 211 226 231 246 251 256 261 264 265 266 267 267 270 273 273 273 273 272 272 271 268 266 264 260 257 258
97 101 109 120 130 143 159 167 176 184 190 187 197 198 189 183 203 231 230 231 251 257 257 264 267 267 269 267 267 274 278 274 273 274 274 275 278 273 270 267 264 264 262
89 81 95 118 135 150 160 165 174 184 187 179 193 191 190 194 222 235 234 239 252 264 265 267 266 270 269 267 267 271 276 274 271 270 271 275 275 276 273 270 269 269 271
102 95 82 74 96 113 131 146 161 158 163 165 177 194 220 221 231 240 245 245 245 254 262 268 271 274 274 270 273 277 277 274 274 270 269 272 270 270 270 270 265 268 271
88 91 87 71 67 73 80 97 109 113 129 136 166 222 245 247 255 250 247 256 258 260 261 270 274 275 276 277 287 288 288 283 283 280 273 271 274 277 276 278 273 272 275
60 65 66 65 65 87 94 67 42 74 113 135 183 206 235 256 260 266 266 263 266 267 270 274 279 282 286 296 300 301 295 290 288 289 286 280 279 282 284 285 285 282 281
35 69 46 18 19 53 94 79 37 49 69 84 70 40 360 297 298 296 292 275 268 266 275 275 277 282 290 301 303 302 301 293 292 291 293 294 292 294 285 288 291 289 287
27 39 36 14 8 33 75 84 73 61 58 55 40 24 7 337 333 331 309 291 283 278 279 278 278 285 294 305 308 309 305 294 292 290 288 288 292 293 295 292 292 291 291
21 32 42 36 20 36 74 81 76 72 63 42 27 17 6 345 334 321 312 305 299 297 294 292 288 287 296 311 315 317 307 303 302 297 296 297 294 299 303 300 295 297 296
21 23 31 37 32 37 73 83 71 60 50 30 14 15 10 353 326 314 313 315 309 297 301 301 297 296 300 312 316 319 308 306 305 302 298 301 304 306 309 302 296 296 299
22 27 34 31 21 33 66 80 63 47 34 24 20 20 15 356 339 338 334 333 329 323 318 318 315 313 311 313 319 322 318 308 307 306 307 306 310 310 312 311 301 298 306
29 33 42 32 22 32 55 55 37 26 39 36 24 17 7 357 359 358 343 342 338 333 329 329 329 334 333 335 330 328 325 323 312 308 310 314 319 317 318 319 316 318 321
30 35 45 37 27 27 45 49 18 20 33 40 26 12 7 5 6 5 353 348 346 337 333 331 328 332 337 335 333 331 330 328 324 317 321 322 324 324 327 335 331 331 332
35 42 42 36 25 26 34 35 22 23 35 36 19 9 10 7 10 9 0 351 344 341 336 331 329 328 329 327 327 327 327 328 327 323 322 326 331 334 336 336 337 339 336
26 38 41 31 20 24 32 23 18 28 33 24 12 5 9 13 8 7 6 350 340 330 324 321 315 318 320 319 325 327 327 324 321 322 325 335 341 348 346 341 340 345 347
32 35 34 27 17 22 25 15 11 23 26 17 9 6 7 8 5 359 355 360 349 346 342 335 327 324 322 324 329 332 334 334 335 337 343 347 347 344 341 339 338 342 342